EW7691 Weather Reports


time (UTC)temp
C
wind
direction
speed
KPH
gust
KPH
rain 1hr
cm
rain 24hr
cm
rain mn
cm
humidity
%
barometer
mb
20260906021503 23 37 0.0 0.0 0.00 0.00 0.00 85 1012.0
20260906020002 23 11 0.0 0.0 0.00 0.00 0.00 83 1011.8
20260906014544 24 44 0.0 0.0 0.00 0.00 0.00 80 1011.6
20260906013101 25 44 0.0 0.0 0.00 0.00 0.00 77 1011.4
20260906011526 25 70 0.0 6.4 0.00 0.00 0.00 74 1011.5
20260906010029 25 224 0.0 1.6 0.00 0.00 0.00 73 1011.7
20260906004507 26 164 0.0 3.2 0.00 0.00 0.00 72 1011.7
20260906003007 27 232 1.6 12.9 0.00 0.00 0.00 69 1012.1
20260906001549 29 310 4.8 20.9 0.00 0.00 0.00 63 1012.4
20260906000058 31 286 0.0 3.2 0.00 0.00 0.00 62 1011.8
20260905234530 31 160 0.0 3.2 0.00 0.00 0.00 59 1011.3
20260905233039 32 124 1.6 6.4 0.00 0.00 0.00 58 1011.2
20260905231522 32 146 1.6 9.7 0.00 0.00 0.00 55 1011.0
20260905230019 33 128 3.2 6.4 0.00 0.00 0.00 53 1010.9
20260905224553 34 120 3.2 6.4 0.00 0.00 0.00 50 1011.1
20260905223053 34 81 1.6 6.4 0.00 0.00 0.00 50 1011.2
20260905221533 34 135 3.2 9.7 0.00 0.00 0.00 50 1011.2
20260905220033 33 77 4.8 9.7 0.00 0.00 0.00 50 1011.3
20260905214515 33 72 8.0 11.3 0.00 0.00 0.00 52 1011.4
20260905213014 33 95 1.6 9.7 0.00 0.00 0.00 53 1011.4
20260905211553 33 37 6.4 14.5 0.00 0.00 0.00 53 1011.6
20260905210104 33 43 8.0 14.5 0.00 0.00 0.00 52 1011.5
20260905204536 32 257 0.0 6.4 0.00 0.00 0.00 54 1011.5
20260905203037 32 87 4.8 9.7 0.00 0.00 0.00 57 1011.8
20260905201514 32 41 6.4 12.9 0.00 0.00 0.00 62 1012.1
20260905200017 32 65 4.8 12.9 0.00 0.00 0.00 63 1012.2
20260905194554 34 59 6.4 19.3 0.00 0.00 0.00 53 1012.2
20260905193053 37 31 8.0 12.9 0.00 0.00 0.00 45 1012.3
20260905191536 36 152 1.6 9.7 0.00 0.00 0.00 45 1012.5
20260905190031 36 298 4.8 14.5 0.00 0.00 0.00 48 1012.6
20260905184520 36 240 4.8 11.3 0.00 0.00 0.00 49 1012.7
20260905183015 36 212 1.6 8.0 0.00 0.00 0.00 48 1012.9
20260905181516 36 179 3.2 8.0 0.00 0.00 0.00 50 1013.1
20260905180008 35 278 3.2 9.7 0.00 0.00 0.00 50 1013.4
20260905174515 35 232 3.2 9.7 0.00 0.00 0.00 52 1013.5
20260905173002 35 9 4.8 11.3 0.00 0.00 0.00 53 1013.6
20260905171634 35 219 1.6 11.3 0.00 0.00 0.00 54 1013.8
20260905170104 34 318 3.2 14.5 0.00 0.00 0.00 55 1014.0
20260905164543 34 160 4.8 12.9 0.00 0.00 0.00 57 1014.3
20260905163036 33 101 6.4 11.3 0.00 0.00 0.00 59 1014.4
20260905161511 33 251 0.0 4.8 0.00 0.00 0.00 60 1014.5
20260905160007 32 256 1.6 6.4 0.00 0.00 0.00 62 1014.6
20260905154601 31 62 1.6 3.2 0.00 0.00 0.00 69 1014.9
20260905153041 30 58 0.0 8.0 0.00 0.00 0.00 75 1015.0
20260905151520 28 7 0.0 0.0 0.00 0.00 0.00 78 1015.1
20260905150024 28 25 0.0 0.0 0.00 0.00 0.00 79 1015.1
20260905144557 27 34 0.0 0.0 0.00 0.00 0.00 81 1015.2
20260905143103 27 32 0.0 0.0 0.00 0.00 0.00 82 1015.3
20260905141537 27 32 0.0 0.0 0.00 0.00 0.00 82 1015.1
20260905140036 27 28 0.0 0.0 0.00 0.00 0.00 83 1015.2
20260905134516 26 23 0.0 0.0 0.00 0.00 0.00 85 1015.1
20260905133010 25 30 0.0 0.0 0.00 0.00 0.00 87 1015.3
20260905131548 24 36 0.0 0.0 0.00 0.00 0.00 90 1015.4
20260905130049 23 36 0.0 0.0 0.00 0.00 0.00 91 1015.4
20260905124526 23 36 0.0 0.0 0.00 0.00 0.00 93 1015.5
20260905123033 22 36 0.0 0.0 0.00 0.00 0.00 96 1015.4
20260905121604 22 19 0.0 0.0 0.00 0.00 0.00 97 1015.3
20260905120100 21 19 0.0 0.0 0.00 0.00 0.00 96 1015.2
20260905114545 21 19 0.0 0.0 0.00 0.00 0.00 96 1015.2
20260905113041 21 19 0.0 0.0 0.00 0.00 0.00 96 1014.8
20260905111524 21 19 0.0 0.0 0.00 0.00 0.00 96 1014.6
20260905110022 21 19 0.0 0.0 0.00 0.03 0.00 96 1014.4
20260905104515 21 19 0.0 0.0 0.00 0.03 0.00 96 1014.2
20260905103009 21 19 0.0 0.0 0.00 0.03 0.00 96 1014.1
20260905101551 21 19 0.0 0.0 0.00 0.03 0.00 95 1014.2
20260905100046 21 19 0.0 0.0 0.00 0.03 0.00 95 1014.1
20260905094557 21 19 0.0 0.0 0.00 0.03 0.00 95 1014.1
20260905093028 21 19 0.0 0.0 0.00 0.03 0.00 95 1013.8
20260905091516 21 19 0.0 0.0 0.00 0.03 0.00 95 1013.8
20260905090016 21 19 0.0 0.0 0.00 0.03 0.00 95 1013.7
20260905084514 21 19 0.0 0.0 0.00 0.03 0.00 94 1014.0
20260905083014 21 11 0.0 0.0 0.00 0.03 0.00 95 1014.0
20260905081514 21 29 0.0 0.0 0.00 0.03 0.00 94 1013.9
20260905080013 21 29 0.0 0.0 0.00 0.03 0.00 95 1013.9
20260905074512 21 29 0.0 0.0 0.00 0.03 0.00 94 1013.9
20260905073010 21 29 0.0 0.0 0.00 0.03 0.00 94 1014.0
20260905071609 21 29 0.0 0.0 0.00 0.03 0.00 94 1014.1
20260905070050 22 29 0.0 0.0 0.00 0.03 0.00 93 1014.2
20260905064550 22 29 0.0 0.0 0.00 0.03 0.00 93 1014.2
20260905063032 22 29 0.0 0.0 0.00 0.03 0.00 93 1014.3
20260905061551 22 29 0.0 0.0 0.00 0.03 0.00 93 1014.3
20260905060012 22 29 0.0 0.0 0.00 0.03 0.00 92 1014.4
20260905054518 22 29 0.0 0.0 0.00 0.03 0.00 92 1014.6
20260905053053 22 29 0.0 0.0 0.00 0.03 0.00 92 1014.2
20260905051607 23 29 0.0 0.0 0.00 0.03 0.00 91 1014.2
20260905050035 23 29 0.0 0.0 0.00 0.03 0.00 91 1014.3
20260905044534 23 29 0.0 0.0 0.00 0.03 0.00 90 1014.3
20260905043019 23 29 0.0 0.0 0.00 0.03 0.00 89 1014.3
20260905041516 23 29 0.0 0.0 0.00 0.03 0.00 89 1014.4
20260905040109 24 29 0.0 0.0 0.00 0.03 0.00 89 1014.4
20260905034600 24 29 0.0 0.0 0.00 0.03 0.00 87 1014.7
20260905033050 25 11 0.0 0.0 0.00 0.03 0.00 86 1014.8
20260905031545 25 36 0.0 0.0 0.00 0.03 0.00 86 1014.8
20260905030023 25 37 0.0 0.0 0.00 0.03 0.00 84 1014.9
20260905024539 26 37 0.0 0.0 0.00 0.03 0.00 83 1014.9
20260905023007 26 38 0.0 0.0 0.00 0.03 0.00 83 1015.0